Birmingham, AL

4:36 AM CDT on July 27, 2017 (GMT -0500)
Birmingham International

Weather History for KBHM - July, 2012

Change the Weather History Date:

Thursday, July 19, 2012

  Actual Average Record
Temperature  
Mean Temperature 83 °F 81 °F  
Max Temperature 94 °F 91 °F 103 °F (2000)
Min Temperature 72 °F 72 °F 58 °F (1984)
Cooling Degree Days 18 16  
Month to date cooling degree days 346 301  
Year to date cooling degree days 1286 965  
Since 1 June cooling degree days 766 683  
Growing Degree Days 32 (Base 50)    
Moisture  
Dew Point 71 °F    
Average Humidity 71    
Maximum Humidity 93    
Minimum Humidity 49    
Precipitation  
Precipitation 0.00 in 0.16 in 2.95 in (1897)
Month to date precipitation 1.74 3.00  
Year to date precipitation 23.97 31.35  
Sea Level Pressure  
Sea Level Pressure 30.06 in    
Wind  
Wind Speed 6 mph (SW)    
Max Wind Speed 14 mph    
Max Gust Speed 29 mph    
Visibility 10 miles    
Events Thunderstorm    
T = Trace of Precipitation, MM = Missing Value Source: NWS Daily Summary

Daily Weather History Graph

Daily Weather History Graph

Search for Another Location

Airport or City:

Trip Planner

Search our weather history database for the weather conditions in past years. The results will help you decide how hot, cold, wet, or windy it might be!

Date:

Astronomy

Jul. 19, 2012 Rise Set
Actual Time 5:50 AM CDT 7:55 PM CDT
Civil Twilight 5:22 AM CDT 8:23 PM CDT
Nautical Twilight 4:48 AM CDT 8:57 PM CDT
Astronomical Twilight 4:11 AM CDT 9:34 PM CDT
Moon 6:20 AM CDT (7/19) 8:07 PM CDT (7/19)
Length of Visible Light 15h 00m
Length of Day
14h 04m
New Moon, 0% of the Moon is Illuminated
Jul 19
New Moon
Jul 26
First Quarter
Aug 1
Full
Aug 9
Last Quarter
Aug 17
New

Hourly Weather History & Observations

Time (CDT) Temp. Heat Index Dew Point Humidity Pressure Visibility Wind Dir Wind Speed Gust Speed Precip Events Conditions
12:53 AM 73.9 °F - 71.1 °F 91% 30.06 in 10.0 mi WSW 3.5 mph - N/A   Clear
1:53 AM 73.0 °F - 70.0 °F 90% 30.04 in 10.0 mi SSE 3.5 mph - N/A   Clear
2:53 AM 73.0 °F - 69.1 °F 87% 30.05 in 10.0 mi WSW 5.8 mph - N/A   Clear
3:53 AM 73.0 °F - 69.1 °F 87% 30.06 in 10.0 mi WSW 3.5 mph - N/A   Clear
4:53 AM 73.0 °F - 70.0 °F 90% 30.07 in 10.0 mi Calm Calm - N/A   Clear
5:53 AM 72.0 °F - 69.1 °F 91% 30.08 in 10.0 mi Calm Calm - N/A   Clear
6:53 AM 72.0 °F - 69.1 °F 91% 30.09 in 10.0 mi Calm Calm - N/A   Clear
7:53 AM 75.9 °F - 70.0 °F 82% 30.11 in 10.0 mi SSW 4.6 mph - N/A   Clear
8:53 AM 78.1 °F - 69.1 °F 74% 30.12 in 10.0 mi West 9.2 mph - N/A   Mostly Cloudy
9:53 AM 79.0 °F - 70.0 °F 74% 30.12 in 10.0 mi SSW 6.9 mph - N/A   Partly Cloudy
10:53 AM 82.9 °F 87.5 °F 71.1 °F 67% 30.11 in 10.0 mi West 8.1 mph - N/A   Partly Cloudy
11:14 AM 82.4 °F 87.2 °F 71.6 °F 70% 30.14 in 10.0 mi WNW 9.2 mph - N/A   Mostly Cloudy
11:35 AM 82.4 °F 87.2 °F 71.6 °F 70% 30.13 in 10.0 mi SSW 6.9 mph - N/A   Mostly Cloudy
11:53 AM 84.0 °F 89.0 °F 71.1 °F 65% 30.10 in 10.0 mi Variable 3.5 mph - N/A   Scattered Clouds
12:13 PM 84.2 °F 89.6 °F 71.6 °F 66% 30.12 in 10.0 mi Variable 6.9 mph - N/A   Mostly Cloudy
12:40 PM 84.2 °F 89.6 °F 71.6 °F 66% 30.11 in 10.0 mi WSW 5.8 mph - N/A   Scattered Clouds
12:53 PM 86.0 °F 91.5 °F 71.1 °F 61% 30.08 in 10.0 mi West 5.8 mph - N/A   Scattered Clouds
1:53 PM 88.0 °F 93.8 °F 71.1 °F 57% 30.05 in 10.0 mi West 5.8 mph - N/A   Partly Cloudy
2:53 PM 90.0 °F 96.4 °F 71.1 °F 54% 30.03 in 10.0 mi WSW 6.9 mph - N/A   Partly Cloudy
3:53 PM 91.0 °F 95.6 °F 69.1 °F 48% 30.00 in 10.0 mi Calm Calm - N/A   Scattered Clouds
4:53 PM 91.9 °F 96.9 °F 69.1 °F 47% 29.99 in 10.0 mi Variable 3.5 mph - N/A   Mostly Cloudy
5:53 PM 90.0 °F 95.4 °F 70.0 °F 52% 29.97 in 10.0 mi SW 6.9 mph - N/A   Scattered Clouds
6:53 PM 89.1 °F 96.0 °F 72.0 °F 57% 29.98 in 10.0 mi South 9.2 mph - N/A   Scattered Clouds
7:53 PM 87.1 °F 93.6 °F 72.0 °F 61% 30.00 in 10.0 mi SSW 9.2 mph - N/A   Scattered Clouds
8:21 PM 86.0 °F 91.8 °F 71.6 °F 62% 30.03 in 10.0 mi SSW 10.4 mph - N/A Thunderstorm Thunderstorm
8:44 PM 86.0 °F 91.8 °F 71.6 °F 62% 30.03 in 10.0 mi SSW 9.2 mph - N/A   Partly Cloudy
8:53 PM 86.0 °F 92.2 °F 72.0 °F 63% 30.01 in 10.0 mi SSW 8.1 mph - N/A   Partly Cloudy
9:53 PM 84.0 °F 90.2 °F 73.0 °F 69% 30.02 in 10.0 mi WSW 10.4 mph - N/A   Clear
10:53 PM 82.0 °F 87.9 °F 73.9 °F 76% 30.02 in 10.0 mi WSW 6.9 mph - N/A   Clear
11:53 PM 81.0 °F 86.7 °F 75.0 °F 82% 30.01 in 10.0 mi WSW 8.1 mph - N/A   Scattered Clouds
11:58 PM 80.6 °F 86.2 °F 75.2 °F 84% 30.04 in 10.0 mi West 8.1 mph - N/A   Mostly Cloudy